Weather History for Rensselaer, IN

Change the Weather History Date:

Wednesday, February 6, 2013

  Actual Average (KVPZ) Record (KVPZ)
Temperature  
Mean Temperature 32 °F 25 °F  
Max Temperature 37 °F 33 °F 45 °F (1999)
Min Temperature 28 °F 18 °F -7 °F (2007)
Degree Days  
Heating Degree Days 32 40  
Month to date heating degree days 242  
Since 1 July heating degree days 3927  
Cooling Degree Days 0 0  
Month to date cooling degree days 0  
Year to date cooling degree days 0  
Moisture  
Dew Point 27 °F    
Average Humidity 80    
Maximum Humidity 93    
Minimum Humidity 65    
Precipitation  
Precipitation 0.00 in 0.05 in 0.19 in (2008)
Month to date precipitation 0.27  
Year to date precipitation 2.02  
Sea Level Pressure  
Sea Level Pressure 30.18 in    
Wind  
Wind Speed 5 mph (SSE)    
Max Wind Speed 13 mph    
Max Gust Speed -    
Visibility 9 miles    
Events      
T = Trace of Precipitation, MM = Missing Value Source: NWS Daily Summary

Daily Weather History Graph

Daily Weather History Graph

Search for Another Location

Airport:

Trip Planner

Search our weather history database for the weather conditions in past years. The results will help you decide how hot, cold, wet, or windy it might be!

Date:

Astronomy

Feb. 06, 2013 Rise Set
Actual Time 6:53 AM CST 5:12 PM CST
Civil Twilight 6:24 AM CST 5:41 PM CST
Nautical Twilight 5:52 AM CST 6:13 PM CST
Astronomical Twilight 5:20 AM CST 6:45 PM CST
Moon 3:37 AM CST (2/6) 1:29 PM CST (2/6)
Length of Visible Light 11h 16m
Length of Day
10h 18m
Waning Crescent, 17% of the Moon is Illuminated
Feb 6
Waning Crescent
Feb 10
New
Feb 17
First Quarter
Feb 25
Full
Mar 4
Last Quarter

Hourly Weather History & Observations

Time (CST) Temp. Windchill Dew Point Humidity Pressure Visibility Wind Dir Wind Speed Gust Speed Precip Events Conditions
12:15 AM 30.2 °F - 26.6 °F 86% 30.09 in 10.0 mi Calm Calm - N/A   Overcast
12:35 AM 30.2 °F 26.7 °F 26.6 °F 86% 30.10 in 10.0 mi West 3.5 mph - N/A   Overcast
12:55 AM 30.2 °F 26.7 °F 26.6 °F 86% 30.10 in 10.0 mi West 3.5 mph - N/A   Overcast
1:15 AM 30.2 °F 25.4 °F 26.6 °F 86% 30.11 in 10.0 mi WNW 4.6 mph - N/A   Overcast
1:35 AM 30.2 °F 24.3 °F 24.8 °F 80% 30.11 in 10.0 mi NW 5.8 mph - N/A   Overcast
1:55 AM 30.2 °F 26.7 °F 24.8 °F 80% 30.12 in 10.0 mi NW 3.5 mph - N/A   Overcast
2:15 AM 30.2 °F - 24.8 °F 80% 30.13 in 10.0 mi Calm Calm - N/A   Overcast
2:35 AM 30.2 °F - 26.6 °F 86% 30.11 in 10.0 mi Calm Calm - N/A   Overcast
2:55 AM 30.2 °F - 24.8 °F 80% 30.12 in 10.0 mi Calm Calm - N/A   Overcast
3:15 AM 30.2 °F - 24.8 °F 80% 30.13 in 10.0 mi Calm Calm - N/A   Overcast
3:35 AM 30.2 °F 26.7 °F 24.8 °F 80% 30.14 in 10.0 mi West 3.5 mph - N/A   Overcast
3:55 AM 30.2 °F 26.7 °F 23.0 °F 75% 30.15 in 10.0 mi NNW 3.5 mph - N/A   Overcast
4:15 AM 30.2 °F - 23.0 °F 75% 30.16 in 10.0 mi Calm Calm - N/A   Overcast
4:55 AM 30.2 °F - 23.0 °F 75% 30.17 in 10.0 mi Calm Calm - N/A   Overcast
5:15 AM 30.2 °F - 23.0 °F 75% 30.18 in 10.0 mi Calm Calm - N/A   Overcast
5:35 AM 30.2 °F - 23.0 °F 75% 30.19 in 10.0 mi Calm Calm - N/A   Overcast
5:55 AM 30.2 °F - 24.8 °F 80% 30.19 in 10.0 mi Calm Calm - N/A   Overcast
6:15 AM 30.2 °F - 23.0 °F 75% 30.19 in 10.0 mi Calm Calm - N/A   Overcast
6:35 AM 30.2 °F - 23.0 °F 75% 30.20 in 10.0 mi Calm Calm - N/A   Overcast
6:55 AM 30.2 °F - 23.0 °F 75% 30.20 in 10.0 mi Calm Calm - N/A   Overcast
7:35 AM 28.4 °F 24.6 °F 23.0 °F 80% 30.21 in 7.0 mi East 3.5 mph - N/A   Scattered Clouds
7:55 AM 30.2 °F 26.7 °F 24.8 °F 80% 30.21 in 7.0 mi ESE 3.5 mph - N/A   Clear
8:15 AM 30.2 °F 23.4 °F 24.8 °F 80% 30.21 in 10.0 mi ESE 6.9 mph - N/A   Clear
8:35 AM 32.0 °F 26.4 °F 24.8 °F 75% 30.22 in 10.0 mi ESE 5.8 mph - N/A   Clear
8:55 AM 32.0 °F 26.4 °F 23.0 °F 69% 30.22 in 10.0 mi SE 5.8 mph - N/A   Clear
9:15 AM 32.0 °F 26.4 °F 23.0 °F 69% 30.24 in 7.0 mi SSE 5.8 mph - N/A   Clear
9:35 AM 32.0 °F 27.5 °F 23.0 °F 69% 30.24 in 10.0 mi SSE 4.6 mph - N/A   Clear
9:55 AM 32.0 °F 26.4 °F 23.0 °F 69% 30.23 in 10.0 mi ESE 5.8 mph - N/A   Clear
10:15 AM 33.8 °F 27.7 °F 23.0 °F 65% 30.24 in 10.0 mi ESE 6.9 mph - N/A   Clear
10:55 AM 33.8 °F 26.4 °F 23.0 °F 65% 30.25 in 10.0 mi SSE 9.2 mph - N/A   Clear
11:15 AM 33.8 °F 26.4 °F 24.8 °F 70% 30.24 in 7.0 mi South 9.2 mph - N/A   Clear
11:35 AM 33.8 °F 26.4 °F 26.6 °F 75% 30.24 in 10.0 mi South 9.2 mph - N/A   Clear
11:55 AM 35.6 °F 28.6 °F 26.6 °F 70% 30.22 in 10.0 mi South 9.2 mph - N/A   Clear
12:15 PM 35.6 °F 27.5 °F 26.6 °F 70% 30.22 in 10.0 mi South 11.5 mph - N/A   Clear
12:55 PM 35.6 °F 29.2 °F 26.6 °F 70% 30.22 in 10.0 mi South 8.1 mph - N/A   Clear
1:15 PM 35.6 °F 29.9 °F 26.6 °F 70% 30.22 in 10.0 mi South 6.9 mph - N/A   Clear
1:35 PM 37.4 °F 32.8 °F 26.6 °F 65% 30.22 in 10.0 mi SSW 5.8 mph - N/A   Clear
1:55 PM 37.4 °F 31.4 °F 28.4 °F 70% 30.21 in 10.0 mi SW 8.1 mph - N/A   Scattered Clouds
2:15 PM 37.4 °F 31.4 °F 28.4 °F 70% 30.21 in 10.0 mi South 8.1 mph - N/A   Clear
2:35 PM 37.4 °F 32.1 °F 28.4 °F 70% 30.21 in 10.0 mi South 6.9 mph - N/A   Clear
2:55 PM 37.4 °F 31.4 °F 28.4 °F 70% 30.20 in 10.0 mi SE 8.1 mph - N/A   Clear
3:15 PM 37.4 °F 30.3 °F 28.4 °F 70% 30.20 in 10.0 mi South 10.4 mph - N/A   Clear
3:35 PM 37.4 °F 30.3 °F 28.4 °F 70% 30.20 in 10.0 mi SSE 10.4 mph - N/A   Clear
3:55 PM 35.6 °F 28.6 °F 28.4 °F 75% 30.19 in 10.0 mi SSE 9.2 mph - N/A   Clear
4:15 PM 35.6 °F 29.2 °F 28.4 °F 75% 30.20 in 10.0 mi SE 8.1 mph - N/A   Clear
4:35 PM 35.6 °F 29.9 °F 28.4 °F 75% 30.20 in 10.0 mi SSE 6.9 mph - N/A   Clear
4:55 PM 33.8 °F 26.4 °F 28.4 °F 81% 30.19 in 7.0 mi SE 9.2 mph - N/A   Clear
5:15 PM 33.8 °F 27.0 °F 28.4 °F 81% 30.19 in 7.0 mi SE 8.1 mph - N/A   Clear
5:35 PM 33.8 °F 27.0 °F 28.4 °F 81% 30.19 in 10.0 mi SE 8.1 mph - N/A   Clear
5:55 PM 33.8 °F 27.7 °F 30.2 °F 87% 30.19 in 10.0 mi SE 6.9 mph - N/A   Clear
6:15 PM 33.8 °F 28.6 °F 30.2 °F 87% 30.19 in 7.0 mi ESE 5.8 mph - N/A   Clear
6:35 PM 33.8 °F 27.0 °F 30.2 °F 87% 30.18 in 7.0 mi ESE 8.1 mph - N/A   Clear
6:55 PM 33.8 °F 27.0 °F 30.2 °F 87% 30.18 in 7.0 mi SE 8.1 mph - N/A   Clear
7:15 PM 33.8 °F 27.0 °F 30.2 °F 87% 30.19 in 7.0 mi SE 8.1 mph - N/A   Clear
7:35 PM 33.8 °F 26.4 °F 30.2 °F 87% 30.18 in 7.0 mi SSE 9.2 mph - N/A   Clear
7:55 PM 32.0 °F 24.2 °F 30.2 °F 93% 30.18 in 7.0 mi SE 9.2 mph - N/A   Clear
8:15 PM 32.0 °F 24.2 °F 30.2 °F 93% 30.17 in 7.0 mi SSE 9.2 mph - N/A   Clear
8:35 PM 32.0 °F 23.6 °F 30.2 °F 93% 30.16 in 7.0 mi SE 10.4 mph - N/A   Clear
8:55 PM 32.0 °F 23.6 °F 30.2 °F 93% 30.16 in 7.0 mi SSE 10.4 mph - N/A   Clear
9:15 PM 32.0 °F 23.0 °F 30.2 °F 93% 30.15 in 7.0 mi SE 11.5 mph - N/A   Clear
9:35 PM 32.0 °F 23.6 °F 30.2 °F 93% 30.14 in 7.0 mi SE 10.4 mph - N/A   Clear
9:55 PM 32.0 °F 24.2 °F 30.2 °F 93% 30.16 in 7.0 mi SSE 9.2 mph - N/A   Scattered Clouds
10:15 PM 32.0 °F 24.8 °F 30.2 °F 93% 30.17 in 7.0 mi SSE 8.1 mph - N/A   Scattered Clouds
10:35 PM 32.0 °F 23.0 °F 30.2 °F 93% 30.15 in 7.0 mi SE 11.5 mph - N/A   Scattered Clouds
10:55 PM 32.0 °F 24.2 °F 30.2 °F 93% 30.16 in 7.0 mi SSE 9.2 mph - N/A   Scattered Clouds
11:15 PM 32.0 °F 23.0 °F 30.2 °F 93% 30.14 in 7.0 mi SE 11.5 mph - N/A   Scattered Clouds
11:35 PM 32.0 °F 23.6 °F 30.2 °F 93% 30.14 in 7.0 mi SE 10.4 mph - N/A   Clear
11:55 PM 32.0 °F 22.5 °F 30.2 °F 93% 30.13 in 7.0 mi SE 12.7 mph - N/A   Clear